RH
48 43 40 36 44 45 38 36 39 41 43 39 35 32 33 36 40 38 35 32 30 27 22 22 20 17 12 17 21 21 13 15 26 30 35 46 52 52 47 39 42 53 62 42 33
56 47 48 59 59 56 53 49 52 52 49 46 44 44 41 39 42 38 32 28 24 23 22 20 18 18 14 19 16 17 14 18 30 32 33 36 48 57 56 45 38 37 43 43 30
67 63 60 61 62 68 70 66 62 60 53 49 49 47 45 42 39 36 33 29 25 24 22 20 17 16 14 15 20 20 9 22 23 24 22 18 24 43 47 52 55 46 39 43 37
85 79 79 83 82 78 78 75 68 67 60 60 52 49 48 46 44 36 36 32 29 25 22 20 19 17 14 16 23 15 15 16 20 26 24 21 27 28 43 43 60 59 57 49 43
93 90 90 92 94 93 85 78 74 68 65 63 57 52 49 47 49 43 40 33 30 29 26 22 21 19 19 16 17 16 17 14 13 13 12 12 10 27 27 50 56 63 60 54 47
97 97 96 96 96 98 94 91 82 81 74 66 63 57 50 50 42 43 42 36 33 32 30 28 24 24 22 18 16 16 14 13 11 11 8 7 10 46 44 64 68 65 61 50 35
95 94 96 95 96 96 96 90 81 74 73 69 64 59 57 56 46 44 49 42 38 36 34 32 28 24 22 18 17 14 11 10 10 13 21 48 35 40 56 75 79 74 55 41 37
90 94 95 94 92 88 86 85 82 82 78 73 68 66 65 57 54 44 46 49 45 41 36 33 28 23 20 16 14 11 14 15 31 48 42 77 54 58 67 68 62 72 82 73 37
94 94 96 96 97 88 84 83 86 84 84 82 74 68 65 64 60 58 52 48 43 38 32 28 23 20 19 17 14 26 22 34 17 38 52 77 69 47 58 62 70 72 64 67 71
97 96 96 98 97 95 96 78 86 90 87 89 79 72 66 66 66 61 55 47 38 31 29 26 21 19 24 20 20 28 32 28 29 35 70 60 52 57 64 73 73 74 72 78 55
100 98 97 96 97 98 96 96 89 87 79 84 79 75 76 77 70 63 50 38 31 27 29 26 21 26 23 22 21 21 19 16 20 49 84 61 56 65 89 98 89 74 52 77 48
89 97 80 94 92 95 94 90 98 93 87 92 88 88 84 82 69 52 42 35 33 34 34 31 26 26 22 20 17 15 17 19 24 60 76 62 54 60 86 81 74 69 65 56 56
8 43 45 61 68 80 83 81 96 94 93 96 95 87 94 77 58 48 43 39 38 40 36 27 22 20 18 15 14 16 28 24 36 51 62 66 50 58 64 73 73 71 71 75 70
32 91 96 87 70 89 86 100 100 97 97 97 100 97 90 72 56 46 42 39 35 27 23 23 19 16 14 14 17 10 23 29 44 50 54 69 41 51 63 73 93 90 90 90 71
49 89 72 31 75 89 100 99 100 94 98 93 94 90 80 62 48 38 35 31 28 25 22 19 16 14 15 14 13 13 14 17 37 50 60 57 64 40 65 72 100 82 76 85 96
71 67 67 85 100 98 98 100 98 99 100 89 92 84 69 56 50 44 35 32 26 20 17 17 16 16 15 13 14 13 14 12 19 40 51 80 56 90 73 75 65 96 84 75 57
100 83 100 85 100 100 99 98 99 100 99 94 77 81 76 52 43 44 37 24 18 18 17 17 16 15 17 15 22 35 43 26 15 29 47 74 71 99 98 90 75 94 97 98 95
96 100 100 100 98 99 99 98 99 97 92 89 88 86 70 36 27 20 25 17 16 17 14 13 11 34 19 14 16 25 46 44 20 26 59 78 54 88 97 96 91 98 99 100 100
100 100 100 100 99 99 99 100 99 98 98 96 99 93 25 15 24 22 18 19 24 17 15 16 12 13 19 32 30 36 63 64 26 23 56 69 97 94 96 99 98 99 97 85 58
100 100 99 100 100 99 100 99 100 100 100 99 75 67 27 20 19 19 18 19 16 14 12 15 12 14 34 42 51 24 83 57 60 62 84 88 98 100 98 99 97 99 96 46 24
100 100 98 100 100 100 100 99 100 96 85 63 35 20 15 20 20 20 17 14 8 8 6 6 6 6 20 75 58 36 37 63 55 51 43 69 91 95 100 97 94 96 96 82 29
100 100 100 100 100 100 100 100 95 72 57 32 23 19 22 21 20 16 10 7 6 5 4 5 5 4 3 35 64 50 100 99 96 50 43 72 76 96 98 96 97 100 98 94 60
100 100 100 100 100 100 97 71 38 23 16 15 20 22 21 18 13 9 6 5 4 7 7 6 6 5 4 6 53 64 65 91 74 71 100 100 90 98 99 98 98 98 95 96 81
100 100 100 100 100 88 48 36 17 10 14 19 22 18 15 12 8 5 5 6 10 11 9 7 5 9 6 11 58 92 90 100 68 96 86 92 94 97 95 87 100 96 94 97 100
100 100 100 98 88 67 46 20 10 13 19 22 17 16 12 7 5 5 9 15 15 14 10 9 32 69 38 21 86 100 90 100 63 73 92 97 71 62 90 99 100 99 100 99 95
100 99 94 74 31 11 13 15 12 20 26 22 16 13 7 6 6 10 21 21 16 13 14 25 31 52 92 36 67 99 85 83 100 98 91 58 100 85 63 99 99 100 99 100 98
100 98 90 66 47 20 16 17 19 28 22 17 14 8 7 8 12 15 17 16 12 20 26 32 41 44 82 97 46 71 100 100 100 100 74 75 100 89 74 84 95 98 97 98 98
Wind_Speed
42 41 41 40 39 40 40 40 41 42 43 44 44 44 45 45 43 43 42 42 42 44 45 45 46 46 46 46 44 43 48 46 43 41 41 41 43 38 43 47 46 48 51 47 47
43 42 40 39 37 38 38 38 39 40 42 44 47 48 49 47 47 45 44 41 42 43 46 46 48 50 49 45 47 45 46 43 38 40 42 43 44 47 48 52 55 55 52 50 49
45 44 43 42 41 40 41 41 40 41 42 44 44 45 46 49 49 49 46 44 45 44 46 48 49 50 51 50 45 45 47 42 42 42 43 46 48 51 52 54 56 58 60 53 53
47 47 45 44 44 45 44 43 43 44 44 45 45 47 49 50 51 53 51 50 47 46 47 50 51 52 52 51 44 49 48 47 43 43 45 47 49 52 56 58 59 60 58 54 53
51 51 50 48 47 47 46 46 46 46 45 47 45 48 51 51 54 57 54 53 51 50 50 51 51 52 52 54 51 50 44 44 46 45 48 52 54 55 56 58 59 56 53 55 55
54 53 52 53 51 49 51 50 53 51 50 51 52 52 50 49 52 51 53 54 53 52 52 52 52 51 51 49 48 42 45 44 46 46 50 56 54 54 52 54 56 55 54 51 50
56 59 57 52 55 54 54 55 54 54 53 52 51 50 51 51 50 52 52 53 53 52 49 50 50 47 45 45 40 41 42 42 44 45 48 54 58 57 49 50 56 57 54 53 54
61 60 56 54 56 57 54 53 55 54 53 54 55 54 51 51 51 51 51 50 51 49 46 42 41 42 41 41 36 42 40 40 37 45 47 48 57 46 48 53 51 51 53 56 50
64 62 58 57 58 59 57 55 54 54 55 57 52 49 48 49 48 48 48 46 45 43 40 36 38 40 34 32 37 35 37 41 38 47 48 44 50 45 48 52 51 53 53 54 53
58 57 54 56 54 52 52 52 52 53 53 53 50 48 47 44 43 43 43 41 39 38 32 32 35 34 26 31 33 33 36 36 39 40 42 44 46 42 46 49 52 41 42 42 44
66 58 58 57 51 51 51 48 52 52 51 51 47 47 44 40 41 38 37 35 35 34 29 32 32 24 28 30 29 31 36 40 40 40 39 43 44 39 41 46 40 39 28 35 39
71 65 69 65 66 57 60 56 51 51 48 44 42 41 40 42 38 33 33 33 32 29 29 29 26 26 28 29 32 34 37 40 39 36 37 40 43 42 44 41 36 34 39 35 39
69 64 63 64 58 58 57 55 47 47 42 39 40 40 36 35 33 32 31 30 29 28 27 28 23 28 29 29 30 29 33 37 42 37 36 41 38 38 37 36 38 38 33 37 32
67 59 61 63 58 57 50 46 43 41 41 38 37 36 32 31 32 29 29 28 26 25 26 25 23 23 24 26 29 33 32 33 37 38 38 33 38 31 26 24 27 30 32 31 25
61 63 54 50 51 44 43 43 43 40 38 35 32 31 28 29 27 27 24 25 25 24 25 20 20 22 24 25 30 32 36 34 33 34 37 28 28 23 19 18 16 24 24 23 26
47 47 51 47 42 44 43 43 41 38 33 34 31 26 22 23 25 26 25 26 27 26 23 21 24 26 28 31 34 38 38 33 31 29 35 16 19 4 9 19 24 14 22 20 31
46 39 40 42 44 41 42 42 35 33 28 32 34 24 22 22 23 26 30 24 25 26 25 28 28 30 29 33 34 34 29 29 29 25 27 22 11 8 9 11 23 21 25 19 24
39 43 41 39 43 39 37 36 33 29 30 33 22 21 23 22 23 25 27 23 25 29 32 34 32 24 31 35 37 37 31 29 30 23 22 23 20 18 9 20 22 15 15 12 16
38 42 42 39 38 36 35 33 32 32 30 25 19 23 20 25 27 25 24 23 30 35 35 37 36 34 34 32 34 28 30 25 28 22 25 18 25 34 22 16 18 14 14 15 17
30 33 36 32 35 35 34 33 32 28 25 19 18 22 20 23 24 25 24 28 33 35 37 39 40 34 35 32 34 33 24 27 28 26 21 12 19 20 16 24 20 19 17 18 23
30 30 31 30 30 31 29 29 21 14 16 16 17 19 20 21 23 26 28 29 36 39 42 45 47 42 38 39 37 32 29 29 29 30 27 25 27 24 15 15 21 16 21 23 21
27 27 25 29 26 25 22 15 12 11 15 16 18 19 20 22 24 27 31 34 37 39 39 42 47 48 44 42 41 37 27 24 29 30 25 27 26 18 20 18 14 8 12 17 17
27 28 23 22 20 18 13 12 12 14 15 16 18 19 20 24 27 30 32 34 35 35 36 38 41 44 41 37 42 40 37 36 28 30 30 28 27 22 21 17 11 13 13 13 14
26 23 22 19 16 14 14 14 13 15 15 17 18 19 22 26 28 30 31 32 31 32 34 36 34 36 40 37 38 46 43 32 28 28 25 34 27 22 15 10 14 16 14 15 16
21 17 17 14 14 14 13 13 13 15 16 18 17 21 24 27 27 29 30 30 30 33 34 32 23 25 34 32 44 42 46 36 37 38 36 23 27 30 24 23 8 15 13 16 18
20 20 20 16 15 14 13 14 14 14 17 18 20 23 25 25 27 27 28 29 30 30 27 25 25 27 24 29 47 45 47 40 42 26 34 23 19 29 28 25 22 17 14 11 11
19 18 17 17 14 13 13 13 15 16 15 18 21 22 23 24 24 25 26 25 24 18 18 25 29 28 12 11 35 53 31 31 23 20 33 36 24 28 29 28 24 28 15 15 10
Wind_Direction
266 264 265 266 268 268 268 268 271 271 271 268 268 266 267 270 277 282 285 285 283 281 280 286 288 290 287 288 280 276 278 276 274 271 267 258 257 252 251 257 253 248 258 262 264
266 265 263 264 267 270 271 270 271 272 272 269 269 271 272 275 278 282 284 282 281 280 279 284 287 289 289 284 283 281 282 281 274 269 268 265 259 256 254 256 257 256 253 259 260
264 264 265 266 269 271 274 274 273 274 274 273 271 273 272 272 276 278 279 283 283 281 280 282 283 283 283 281 280 279 279 277 275 272 270 270 266 258 255 253 251 257 262 258 258
265 264 265 269 272 272 275 275 277 274 274 271 271 271 269 271 277 275 277 276 278 281 281 279 279 278 277 278 277 276 277 278 276 270 270 269 264 262 258 258 252 250 252 258 263
266 265 266 267 271 274 274 274 277 278 276 276 275 275 272 274 276 276 276 277 279 281 280 280 278 276 274 273 274 275 277 274 272 273 277 278 279 270 267 261 260 261 266 260 259
267 268 265 266 267 272 272 276 278 277 277 280 279 279 279 276 273 274 275 277 278 279 278 277 274 275 275 277 279 281 278 278 279 283 288 287 278 273 269 266 258 255 255 255 257
269 269 266 266 268 268 273 275 276 277 279 279 280 281 280 276 277 272 274 275 275 275 274 274 275 277 277 278 280 284 282 284 289 287 278 270 269 272 274 264 259 257 256 251 250
272 273 270 269 271 271 273 274 275 276 279 278 281 281 278 276 274 272 272 272 273 273 273 274 275 277 277 280 286 282 287 288 282 276 275 270 274 273 270 267 263 255 253 251 251
272 273 272 269 268 269 273 277 276 277 280 281 280 282 274 273 272 271 270 271 272 271 271 274 275 276 279 283 283 286 282 281 282 275 273 271 277 282 272 269 263 258 251 254 253
266 267 274 269 271 273 272 279 280 280 286 281 279 278 273 270 269 269 270 269 268 269 273 274 271 276 284 282 285 280 285 282 281 279 284 284 286 284 279 276 269 267 260 255 251
264 269 271 272 272 270 277 278 279 279 285 277 272 266 264 267 269 268 267 267 266 267 267 267 275 284 277 281 287 289 293 294 295 290 280 285 282 278 266 262 264 245 241 244 242
259 263 268 267 272 272 281 285 282 278 274 267 261 258 262 266 264 265 265 264 265 268 269 273 279 273 279 286 290 304 301 301 299 292 279 277 278 275 267 260 269 258 238 237 238
263 266 269 270 272 273 280 278 271 269 264 260 259 260 259 258 260 260 260 262 266 267 268 269 275 272 282 294 302 303 299 302 298 291 285 286 282 277 270 272 266 255 255 234 243
257 258 259 266 271 272 272 264 260 262 262 259 255 256 253 255 255 257 261 262 261 259 261 271 275 288 293 298 299 299 299 297 298 294 295 293 284 282 287 268 246 255 234 242 244
258 260 267 265 268 270 252 254 255 255 254 254 250 246 249 253 257 257 255 255 257 259 268 278 283 280 285 290 287 295 290 295 296 295 297 304 293 309 286 236 233 238 240 226 217
259 268 267 265 248 248 249 248 249 251 248 251 248 246 245 248 252 253 246 259 263 264 267 270 273 278 280 282 283 285 285 284 287 298 296 275 288 42 254 214 223 218 240 226 207
258 252 245 254 241 235 241 244 243 243 237 244 243 247 249 239 244 261 266 252 255 261 262 263 269 272 272 277 279 281 285 285 282 286 300 256 247 257 199 233 219 227 223 214 234
241 240 235 234 239 238 237 239 237 230 231 237 238 234 240 248 256 255 264 275 283 274 268 272 271 270 276 279 283 284 282 280 283 288 291 261 232 259 72 237 223 252 178 225 245
227 226 226 228 232 232 235 234 234 234 235 234 227 236 243 243 250 257 262 269 265 273 280 279 280 282 276 277 281 283 275 285 273 276 283 268 257 270 277 183 216 226 245 242 247
225 232 230 220 226 232 231 232 233 228 227 222 229 245 247 261 267 267 268 277 274 278 279 275 279 273 262 259 264 271 262 270 280 280 280 276 267 277 280 285 281 235 229 236 237
225 225 227 234 229 225 222 232 221 203 226 231 240 250 257 261 272 278 280 279 277 280 281 279 280 277 261 248 256 263 262 262 268 261 270 273 272 260 284 276 273 264 234 232 236
232 221 203 212 208 214 218 214 209 210 234 241 251 257 264 270 272 275 275 275 279 280 277 274 273 273 265 245 244 255 244 257 254 254 260 269 271 291 280 290 270 236 228 232 252
204 192 194 200 205 205 194 205 221 230 239 251 260 267 269 274 279 282 283 283 287 283 280 278 276 272 263 249 237 237 234 231 238 242 247 263 273 269 280 268 273 243 242 241 255
182 184 188 193 188 178 202 216 236 246 255 264 269 271 277 284 286 286 285 288 290 290 290 288 283 275 264 243 230 223 228 234 224 244 246 251 256 283 281 288 290 263 262 257 259
178 180 180 181 189 190 211 226 237 258 267 271 274 279 287 287 287 288 295 294 295 298 298 294 284 275 255 242 213 212 219 223 232 234 243 247 258 259 261 266 288 284 263 250 246
178 181 184 180 193 206 222 240 252 263 270 270 278 289 291 290 293 298 295 293 297 294 291 287 286 272 266 232 217 209 212 218 228 253 234 232 237 254 256 263 273 281 268 272 259
182 182 180 194 200 216 234 249 263 271 267 275 288 294 291 297 298 298 296 294 300 295 293 285 289 272 260 256 224 217 192 209 217 237 239 237 233 244 250 253 255 269 272 276 279